Flight Track Log - Related Links

Times and Time Zones

All times are in EST time to prevent confusion due to time zone crossing. See the AMF1324 flight status page for this flight to view local times or setup timezone preferences in your user account.

Time Position Orientation Groundspeed Altitude Reporting Facility
EST Latitude Longitude Course Direction KTS MPH feet Rate Location/Type
08:21AM 42.1753 -75.9839 278° West 139 160 3,100  Level New York Center
08:22AM 42.1797 -76.0289 278° West 139 160 4,500 1,500 Climbing New York Center
08:23AM 42.1878 -76.0772 283° West 134 154 6,100 1,500 Climbing New York Center
08:24AM 42.2067 -76.1208 300° West 134 154 7,500 950 Climbing New York Center
08:25AM 42.2189 -76.1722 288° West 134 154 8,000 250 Climbing New York Center
08:26AM 42.2328 -76.2319 287° West 146 168 8,000  Level New York Center
08:27AM 42.2553 -76.2900 298° West 160 184 8,000  Level New York Center
08:28AM 42.2711 -76.3503 290° West 170 196 8,000  Level New York Center
08:29AM 42.2869 -76.4103 290° West 170 196 8,000  Level New York Center
08:30AM 42.3075 -76.4625 298° West 170 196 8,000  Level New York Center
08:31AM 42.3253 -76.5258 291° West 175 201 8,000  Level New York Center
08:32AM 42.3411 -76.5861 290° West 175 201 8,000  Level New York Center
08:33AM 42.3589 -76.6467 292° West 175 201 8,000  Level New York Center
08:34AM 42.3747 -76.7069 290° West 175 201 8,000  Level New York Center
08:35AM 42.3883 -76.7672 287° West 170 196 8,000  Level New York Center
08:36AM 42.4064 -76.8222 294° West 170 196 8,000  Level New York Center
08:37AM 42.4264 -76.8803 295° West 170 196 8,000  Level New York Center
08:38AM 42.4342 -76.9117 289° West 166 191 8,000  Level Cleveland Center
08:39AM 42.4486 -76.9708 288° West 166 191 8,000  Level Cleveland Center
08:40AM 42.4650 -77.0286 291° West 165 190 8,000  Level Cleveland Center
08:41AM 42.4850 -77.0947 292° West 161 185 8,000  Level Cleveland Center
08:42AM 42.5011 -77.1514 291° West 160 184 8,000  Level Cleveland Center
08:43AM 42.5161 -77.2083 290° West 161 185 8,000  Level Cleveland Center
08:44AM 42.5317 -77.2639 291° West 159 183 8,000  Level Cleveland Center
08:45AM 42.5461 -77.3161 291° West 158 182 8,000  Level Cleveland Center
08:45AM 42.5483 -77.3186 320° Northwest 158 182 8,000  Level Cleveland Center
08:46AM 42.5617 -77.3717 289° West 158 182 8,000  Level Cleveland Center
08:46AM 42.5636 -77.3744 314° West 158 182 8,000  Level Cleveland Center
08:47AM 42.5792 -77.4278 292° West 160 184 8,000  Level Cleveland Center
08:47AM 42.5833 -77.4433 290° West 163 188 8,000  Level Cleveland Center
08:48AM 42.5944 -77.4836 291° West 159 183 8,000  Level Cleveland Center
08:48AM 42.5981 -77.4950 293° West 158 182 8,000  Level Cleveland Center
08:49AM 42.6111 -77.5453 289° West 164 189 8,000  Level Cleveland Center
08:49AM 42.6142 -77.5542 295° West 165 190 8,000  Level Cleveland Center
08:50AM 42.6278 -77.6072 289° West 169 194 8,000  Level Cleveland Center
08:50AM 42.6289 -77.6131 285° West 166 191 8,000  Level Cleveland Center
08:51AM 42.6447 -77.6664 292° West 171 197 8,000  Level Cleveland Center
08:51AM 42.6517 -77.6853 297° West 171 197 8,000  Level Cleveland Center
08:52AM 42.6622 -77.7225 291° West 167 192 8,000  Level Cleveland Center
08:52AM 42.6672 -77.7442 287° West 169 194 8,000  Level Cleveland Center
08:53AM 42.6767 -77.7839 288° West 166 191 8,000  Level Cleveland Center
08:53AM 42.6828 -77.8025 294° West 166 191 8,000 -70 Level Cleveland Center
08:54AM 42.7011 -77.8686 291° West 167 192 7,900 -48 Descending Cleveland Center
08:55AM 42.7175 -77.9250 292° West 169 194 7,900 -195 Level Cleveland Center
08:56AM 42.7353 -77.9872 291° West 169 194 7,500 -439 Descending Cleveland Center
08:57AM 42.7514 -78.0511 289° West 171 197 7,000 -484 Descending Cleveland Center
08:58AM 42.7703 -78.1142 292° West 174 200 6,500 -387 Descending Cleveland Center
08:59AM 42.7917 -78.1767 295° West 175 201 6,200 -484 Descending Cleveland Center
09:00AM 42.8047 -78.2419 285° West 171 197 5,500 -484 Descending Cleveland Center
09:01AM 42.8289 -78.2975 301° West 175 201 5,200 -387 Descending Cleveland Center
09:02AM 42.8456 -78.3625 289° West 175 201 4,700 -387 Descending Cleveland Center
09:03AM 42.8644 -78.4278 292° West 176 203 4,400 -339 Descending Cleveland Center
09:04AM 42.8856 -78.4933 294° West 180 207 4,000 -532 Descending Cleveland Center
09:05AM 42.9103 -78.5606 297° West 189 217 3,300 -576 Descending Cleveland Center
09:07AM 42.9350 -78.6225 299° West 179 206 2,800 -750 Descending Cleveland Center
09:07AM 42.9500 -78.6333 332° Northwest 125 144 2,100 -839 Descending Buffalo TRACON
09:08AM 42.9500 -78.6833 270° West 119 137 1,500 -600 Descending Buffalo TRACON
09:10AM 42.9333 -78.7167 251° West  Level FlightAware Approximate

Login

Don't have an account? Register now (free) for customized features, flight alerts, and more!